Flag for U.S.A. Weather past 2 weeks in Providence, Rhode Island, U.S.A.

Now
58 °F

Overcast.


Feels Like: 55 °F
Forecast: 50 / 62 °F
Wind: 13 mph from Northeast

Location: Green State Airport

Current Time: Oct 2, 2014 at 1:58:19 PM

Latest Report: Oct 2, 2014 at 12:51 PM


Visibility: 10 mi

Pressure: 30.15 "Hg

Humidity: 87%

Dew point: 54 °F

Location of ProvidenceLocation

Historic Weather in Providence — Graph

°F

Providence temperature yesterday

Maximum temperature yesterday: 59 °F (at 9:51 AM)
Minimum temperature yesterday: 57 °F (at 12:51 AM)
Average temperature yesterday: 58 °F

Past Weeks' High & Low Weather Summary

 TemperatureHumidityPressure
High86 °F (Sep 28, 3:51 PM)100% (Sep 21, 9:58 PM)30.61 "Hg (Sep 21, 9:58 PM)
Low43 °F (Sep 20, 2:51 AM)18% (Sep 26, 1:51 PM)29.57 "Hg (Sep 22, 1:51 AM)
Average62 °F74%30.12 "Hg
* Reported Sep 17 11:51 AM — Oct 2 11:59 AM, Providence, Weather by CustomWeather, © 2014

Note: Actual official high and low records may vary slightly from our data, if they occured in-between our weather recording intervals... More about our weather records

Advertising

Providence weather history for previous 24 hours

 ConditionsComfort  
Time TempWeatherWind HumidityBarometerVisibility
11:59 AM
Oct 2
57 °FMostly cloudy.18 mph90%30.14 "Hg10 mi
10:51 AM57 °FLight rain. Overcast.12 mph93%30.15 "Hg10 mi
9:51 AM57 °FLight rain. Low clouds.12 mph93%30.14 "Hg10 mi
8:51 AM57 °FLight rain. Low clouds.15 mph93%30.13 "Hg10 mi
7:51 AM57 °FLight rain. Fog.13 mph93%30.11 "Hg5 mi
6:51 AM57 °FFog.13 mph93%30.11 "Hg5 mi
6:03 AM57 °FLight rain. Fog.15 mph93%30.10 "Hg5 mi
5:51 AM57 °FLight rain. Fog.13 mph93%30.10 "Hg6 mi
4:51 AM57 °FLight rain. Low clouds.15 mph96%30.09 "Hg7 mi
3:51 AM57 °FLight rain. Low clouds.15 mph96%30.08 "Hg9 mi
3:03 AM57 °FLight rain. Mostly cloudy.15 mph96%30.07 "Hg8 mi
2:51 AM57 °FRain. Fog.15 mph96%30.07 "Hg4 mi
1:51 AM58 °FLight rain. Fog.14 mph93%30.08 "Hg4 mi
12:51 AM58 °FRain. Fog.14 mph93%30.08 "Hg5 mi
11:51 PM
Oct 1
58 °FFog.12 mph93%30.08 "Hg6 mi
10:51 PM58 °FLow clouds.15 mph93%30.08 "Hg8 mi
9:51 PM58 °FLight rain. Fog.13 mph97%30.08 "Hg5 mi
8:51 PM57 °FLight rain. Low clouds.13 mph96%30.07 "Hg7 mi
7:51 PM58 °FLight rain. Low clouds.15 mph93%30.06 "Hg7 mi
6:51 PM58 °FLow clouds.15 mph93%30.05 "Hg9 mi
5:51 PM58 °FLow clouds.10 mph93%30.05 "Hg10 mi
4:51 PM58 °FLight rain. Low clouds.14 mph93%30.04 "Hg10 mi
3:51 PM59 °FLight rain. Low clouds.13 mph90%30.03 "Hg10 mi
2:51 PM59 °FLight rain. Overcast.16 mph93%30.04 "Hg10 mi
1:51 PM59 °FLight rain. Fog.14 mph93%30.04 "Hg5 mi
1:02 PM59 °FLight rain. Overcast.15 mph90%30.05 "Hg9 mi
Weather by CustomWeather, © 2014

See weather overviewHow to use our weather pages